Tracking 32460 objects as of 11-Dec-2025
HD Live streaming from Space Station
objects crossing your sky now

STARLINK-32013

Track STARLINK-32013 now!
10-day predictions
STARLINK-32013 is classified as:


NORAD ID: 60103
Int'l Code: 2024-117N
Perigee: 481.8 km
Apogee: 483.1 km
Inclination: 53.2 °
Period: 94.1 minutes
Semi major axis: 6853 km
RCS: Unknown
Launch date: June 23, 2024
Source: United States (US)
Launch site: AIR FORCE EASTERN TEST RANGE (AFETR)
Your satellite tracking list
Your tracking list is empty




NASA's NSSDC Master Catalog

Two Line Element Set (TLE):
1 60103U 24117N   25344.72720269 -.00003012  00000-0 -89717-4 0  9992
2 60103  53.1602  90.5068 0001001  61.6519 298.4583 15.30167068 83262
Source of the keplerian elements: AFSPC